Weather History for KUIN - May, 2014

Change the Weather History Date:

Sunday, May 11, 2014

  Actual Average Record
Temperature  
Mean Temperature 73 °F 61 °F  
Max Temperature 84 °F 71 °F 88 °F (2000)
Min Temperature 62 °F 51 °F 31 °F (1907)
Degree Days  
Heating Degree Days 0 5  
Month to date heating degree days 44 69  
Since 1 July heating degree days 6167 5499  
Cooling Degree Days 8 2  
Month to date cooling degree days 33 12  
Year to date cooling degree days 37 30  
Growing Degree Days 23 (Base 50)    
Moisture  
Dew Point 64 °F    
Average Humidity 73    
Maximum Humidity 90    
Minimum Humidity 55    
Precipitation  
Precipitation 0.02 in 0.15 in 2.03 in (2002)
Month to date precipitation 0.42 1.50  
Year to date precipitation 6.67 11.05  
Sea Level Pressure  
Sea Level Pressure 29.84 in    
Wind  
Wind Speed 13 mph (SSE)    
Max Wind Speed 30 mph    
Max Gust Speed 45 mph    
Visibility 10 miles    
Events      
T = Trace of Precipitation, MM = Missing Value Source: NWS Daily Summary

Daily Weather History Graph

Daily Weather History Graph

Search for Another Location

Airport or City:

Trip Planner

Search our weather history database for the weather conditions in past years. The results will help you decide how hot, cold, wet, or windy it might be!

Date:

Astronomy

May. 11, 2014 Rise Set
Actual Time 5:53 AM CDT 8:09 PM CDT
Civil Twilight 5:23 AM CDT 8:39 PM CDT
Nautical Twilight 4:46 AM CDT 9:17 PM CDT
Astronomical Twilight 4:05 AM CDT 9:58 PM CDT
Moon 5:05 PM CDT (5/11) 3:58 AM CDT (5/11)
Length of Visible Light 15h 16m
Length of Day
14h 15m
Waxing Gibbous, 89% of the Moon is Illuminated
May 11
Waxing Gibbous
May 14
Full
May 21
Last Quarter
May 28
New
Jun 5
First Quarter

Hourly Weather History & Observations

Time (CDT) Temp. Heat Index Dew Point Humidity Pressure Visibility Wind Dir Wind Speed Gust Speed Precip Events Conditions
12:54 AM 63.0 °F - 59.0 °F 87% 29.89 in 10.0 mi South 16.1 mph - N/A   Mostly Cloudy
1:44 AM 63.0 °F - 59.0 °F 87% 29.88 in 10.0 mi SW 11.5 mph 23.0 mph 0.02 in   Partly Cloudy
1:54 AM 63.0 °F - 59.0 °F 87% 29.86 in 10.0 mi SSE 10.4 mph - 0.02 in   Partly Cloudy
2:54 AM 62.1 °F - 59.0 °F 90% 29.87 in 10.0 mi South 10.4 mph - N/A   Scattered Clouds
3:54 AM 64.0 °F - 57.0 °F 78% 29.85 in 10.0 mi South 10.4 mph - N/A   Partly Cloudy
4:54 AM 63.0 °F - 57.0 °F 81% 29.87 in 10.0 mi South 13.8 mph - N/A   Clear
5:54 AM 63.0 °F - 57.0 °F 81% 29.86 in 10.0 mi South 10.4 mph - N/A   Clear
6:54 AM 63.0 °F - 57.0 °F 81% 29.87 in 10.0 mi South 12.7 mph - N/A   Clear
7:54 AM 64.9 °F - 57.9 °F 78% 29.88 in 10.0 mi SSE 12.7 mph - N/A   Clear
8:54 AM 69.1 °F - 60.1 °F 73% 29.89 in 10.0 mi South 15.0 mph 21.9 mph N/A   Clear
9:54 AM 71.1 °F - 63.0 °F 75% 29.90 in 10.0 mi South 16.1 mph 23.0 mph N/A   Clear
10:54 AM 75.0 °F - 64.9 °F 71% 29.88 in 10.0 mi South 19.6 mph 24.2 mph N/A   Clear
11:54 AM 78.1 °F - 68.0 °F 71% 29.88 in 10.0 mi South 18.4 mph 25.3 mph N/A   Clear
12:54 PM 80.1 °F 82.7 °F 68.0 °F 67% 29.86 in 10.0 mi South 17.3 mph 25.3 mph N/A   Partly Cloudy
1:28 PM 79.0 °F - 68.0 °F 69% 29.86 in 10.0 mi SSE 17.3 mph 23.0 mph N/A   Mostly Cloudy
1:39 PM 81.0 °F 84.1 °F 69.1 °F 67% 29.85 in 10.0 mi SSE 16.1 mph 20.7 mph N/A   Scattered Clouds
1:54 PM 80.1 °F 82.9 °F 69.1 °F 69% 29.84 in 10.0 mi South 17.3 mph 26.5 mph N/A   Mostly Cloudy
2:02 PM 80.1 °F 82.7 °F 68.0 °F 67% 29.86 in 10.0 mi South 16.1 mph 25.3 mph N/A   Mostly Cloudy
2:54 PM 82.0 °F 85.5 °F 69.1 °F 65% 29.83 in 10.0 mi SSE 11.5 mph 19.6 mph N/A   Mostly Cloudy
3:54 PM 82.0 °F 84.9 °F 68.0 °F 62% 29.82 in 10.0 mi South 11.5 mph 21.9 mph N/A   Scattered Clouds
4:54 PM 84.0 °F 86.5 °F 66.9 °F 56% 29.79 in 10.0 mi SSE 10.4 mph 20.7 mph N/A   Partly Cloudy
5:54 PM 82.9 °F 85.4 °F 66.9 °F 58% 29.77 in 10.0 mi SSE 13.8 mph - N/A   Clear
6:54 PM 82.9 °F 85.0 °F 66.0 °F 56% 29.76 in 10.0 mi SSE 10.4 mph - N/A   Clear
7:54 PM 78.1 °F - 68.0 °F 71% 29.76 in 10.0 mi SE 5.8 mph - N/A   Partly Cloudy
8:54 PM 77.0 °F - 66.9 °F 71% 29.78 in 10.0 mi SSE 6.9 mph - N/A   Partly Cloudy
9:54 PM 75.9 °F - 64.9 °F 69% 29.79 in 10.0 mi SSE 8.1 mph - N/A   Clear
10:54 PM 77.0 °F - 64.9 °F 66% 29.79 in 10.0 mi South 16.1 mph 25.3 mph N/A   Clear
11:54 PM 75.0 °F - 66.0 °F 73% 29.79 in 10.0 mi South 13.8 mph 25.3 mph N/A   Clear